Shannon, GA

7:46 PM EDT on August 28, 2016 (GMT -0400)
Russell

Weather History for KRMG - January, 2013

Change the Weather History Date:

Thursday, January 31, 2013

  Actual Average Record
Temperature  
Mean Temperature 42 °F 42 °F  
Max Temperature 50 °F 53 °F 73 °F (2002)
Min Temperature 34 °F 31 °F 16 °F (2014)
Degree Days  
Heating Degree Days 23 23  
Month to date heating degree days 740  
Since 1 July heating degree days 2042  
Moisture  
Dew Point 25 °F    
Average Humidity 54    
Maximum Humidity 72    
Minimum Humidity 36    
Precipitation  
Precipitation 0.00 in 0.20 in 0.50 in (2008)
Month to date precipitation 4.82  
Year to date precipitation 4.82  
Sea Level Pressure  
Sea Level Pressure 30.06 in    
Wind  
Wind Speed 11 mph (West)    
Max Wind Speed 18 mph    
Max Gust Speed 41 mph    
Visibility 10 miles    
Events      
T = Trace of Precipitation, MM = Missing Value Source: NWS Daily Summary

Daily Weather History Graph

Daily Weather History Graph

Search for Another Location

Airport or City:

Trip Planner

Search our weather history database for the weather conditions in past years. The results will help you decide how hot, cold, wet, or windy it might be!

Date:

Astronomy

Jan. 31, 2013 Rise Set
Actual Time 7:38 AM EST 6:09 PM EST
Civil Twilight 7:12 AM EST 6:36 PM EST
Nautical Twilight 6:42 AM EST 7:06 PM EST
Astronomical Twilight 6:12 AM EST 7:35 PM EST
Moon 10:55 PM EST (1/31) 9:52 AM EST (1/31)
Length of Visible Light 11h 23m
Length of Day
10h 31m
Waning Gibbous, 80% of the Moon is Illuminated
Jan 31
Waning Gibbous
Feb 3
Last Quarter
Feb 10
New
Feb 17
First Quarter
Feb 25
Full

Hourly Weather History & Observations

Time (EST) Temp. Windchill Dew Point Humidity Pressure Visibility Wind Dir Wind Speed Gust Speed Precip Events Conditions
12:53 AM 39.9 °F 30.8 °F 26.1 °F 58% 29.88 in 10.0 mi WNW 18.4 mph 41.4 mph N/A   Mostly Cloudy
1:53 AM 39.0 °F 31.4 °F 25.0 °F 57% 29.92 in 10.0 mi WNW 12.7 mph 20.7 mph N/A   Overcast
2:53 AM 37.9 °F 30.0 °F 24.1 °F 57% 29.95 in 10.0 mi West 12.7 mph 24.2 mph N/A   Overcast
3:53 AM 37.9 °F 31.5 °F 23.0 °F 55% 29.96 in 10.0 mi WNW 9.2 mph 18.4 mph N/A   Overcast
4:53 AM 37.0 °F 31.6 °F 25.0 °F 62% 29.99 in 10.0 mi West 6.9 mph - N/A   Overcast
5:53 AM 36.0 °F 30.3 °F 24.1 °F 62% 30.01 in 10.0 mi WNW 6.9 mph - N/A   Mostly Cloudy
6:53 AM 35.1 °F 27.4 °F 23.0 °F 61% 30.03 in 10.0 mi West 10.4 mph - N/A   Clear
7:53 AM 34.0 °F 28.0 °F 24.1 °F 67% 30.06 in 10.0 mi West 6.9 mph - N/A   Partly Cloudy
8:53 AM 36.0 °F 29.6 °F 25.0 °F 64% 30.08 in 10.0 mi West 8.1 mph - N/A   Clear
9:53 AM 37.9 °F 30.9 °F 26.1 °F 62% 30.09 in 10.0 mi WNW 10.4 mph 18.4 mph N/A   Clear
10:53 AM 39.9 °F 34.5 °F 26.1 °F 58% 30.12 in 10.0 mi West 8.1 mph 18.4 mph N/A   Clear
11:53 AM 42.1 °F 35.7 °F 26.1 °F 53% 30.13 in 10.0 mi West 11.5 mph 17.3 mph N/A   Clear
12:53 PM 44.1 °F 40.1 °F 26.1 °F 49% 30.14 in 10.0 mi Variable 6.9 mph 17.3 mph N/A   Clear
1:53 PM 46.9 °F - 23.0 °F 39% 30.12 in 10.0 mi WNW 8.1 mph 21.9 mph N/A   Clear
2:53 PM 48.9 °F - 24.1 °F 38% 30.10 in 10.0 mi West 8.1 mph - N/A   Clear
3:53 PM 48.9 °F - 23.0 °F 36% 30.11 in 10.0 mi West 12.7 mph - N/A   Clear
4:53 PM 48.9 °F - 23.0 °F 36% 30.10 in 10.0 mi West 6.9 mph 16.1 mph N/A   Clear
5:53 PM 46.0 °F 43.9 °F 24.1 °F 42% 30.10 in 10.0 mi West 4.6 mph - N/A   Clear
6:53 PM 41.0 °F - 26.1 °F 55% 30.10 in 10.0 mi Calm Calm - N/A   Clear
7:53 PM 37.0 °F - 28.0 °F 70% 30.12 in 10.0 mi Calm Calm - N/A   Clear
8:53 PM 39.0 °F 36.8 °F 27.0 °F 62% 30.13 in 10.0 mi SSW 3.5 mph - N/A   Clear
9:53 PM 37.0 °F 32.4 °F 27.0 °F 67% 30.13 in 10.0 mi South 5.8 mph - N/A   Clear
10:53 PM 35.1 °F - 27.0 °F 72% 30.14 in 10.0 mi Calm Calm - N/A   Clear
11:53 PM 39.0 °F 35.7 °F 27.0 °F 62% 30.13 in 10.0 mi SSW 4.6 mph - N/A   Clear